Location: Pasadena, ca
(34.1243°N, 118.1037°W)
Time: 21:00:01
(UTC-07:00)

Vanguard 1 - All Passes

Search period start: 17 June 2018 00:00
Search period end: 27 June 2018 00:00
Orbit: 650 x 3833 km, 34.3° (Epoch: 17 June)

Date Brightness Start Highest point End Pass type
(mag) Time Alt. Az. Time Alt. Az. Time Alt. Az.
17 Jun - 05:47:28 10° SSW 05:56:06 35° SE 06:10:26 10° ENE daylight
17 Jun - 08:05:31 10° WSW 08:18:05 78° SSE 08:39:59 10° ENE daylight
17 Jun - 10:27:01 10° W 10:44:28 90° N 11:08:38 10° E daylight
17 Jun - 12:50:45 10° WNW 13:12:19 72° SSW 13:34:10 10° SE daylight
17 Jun - 15:17:37 10° WNW 15:37:36 38° SW 15:54:08 10° SSE daylight
18 Jun - 06:07:26 10° SSW 06:16:33 46° SE 06:32:38 10° ENE daylight
18 Jun - 08:26:25 10° WSW 08:39:27 84° SSE 09:01:55 10° E daylight
18 Jun - 10:48:16 10° W 11:06:17 88° S 11:30:22 10° ESE daylight
18 Jun - 13:12:14 10° WNW 13:33:44 64° SSW 13:54:59 10° SE daylight
18 Jun - 15:40:18 10° W 15:58:15 29° SW 16:13:22 10° S daylight
19 Jun - 04:13:35 10° SSE 04:17:49 14° SE 04:23:11 10° E visible
19 Jun - 06:27:43 10° SW 06:37:14 57° SSE 06:54:38 10° ENE daylight
19 Jun - 08:47:25 10° W 09:00:58 89° S 09:23:52 10° E daylight
19 Jun - 11:09:33 10° W 11:28:02 84° SSW 11:51:58 10° ESE daylight
19 Jun - 13:33:48 10° WNW 13:54:58 56° SW 14:15:31 10° SE daylight
19 Jun - 16:03:52 10° W 16:18:48 22° SW 16:31:47 10° S daylight
20 Jun - 04:31:56 10° S 04:37:57 22° SE 04:46:50 10° E visible
20 Jun - 06:48:15 10° SW 06:58:07 67° SSE 07:16:33 10° ENE daylight
20 Jun - 09:08:30 10° W 09:22:35 89° N 09:45:50 10° E daylight
20 Jun - 11:30:49 10° WNW 11:49:43 79° SSW 12:13:22 10° ESE daylight
20 Jun - 13:55:34 10° WNW 14:16:04 47° SW 14:35:42 10° SSE daylight
20 Jun - 16:29:21 10° W 16:39:21 15° SW 16:48:29 10° SSW daylight
21 Jun - 04:51:21 10° SSW 04:58:13 31° SE 05:09:24 10° E visible
21 Jun - 07:08:57 10° WSW 07:19:12 77° SSE 07:38:27 10° ENE daylight
21 Jun - 09:29:37 10° W 09:44:15 90° N 10:07:46 10° E daylight
21 Jun - 11:52:06 10° WNW 12:11:17 71° SSW 12:34:32 10° SE daylight
21 Jun - 14:17:37 10° W 14:37:00 38° SW 14:55:28 10° SSE daylight
22 Jun - 05:11:17 10° SSW 05:18:37 42° SE 05:31:32 10° ENE visible
22 Jun - 07:29:48 10° WSW 07:40:27 84° SSE 08:00:24 10° E daylight
22 Jun - 09:50:46 10° W 10:05:55 88° S 10:29:37 10° ESE daylight
22 Jun - 12:13:28 10° WNW 12:32:42 63° SSW 12:55:26 10° SE daylight
22 Jun - 14:40:09 10° W 14:57:51 30° SW 15:14:41 10° S daylight
23 Jun - 03:19:13 10° SE 03:20:24 10° SE 03:21:40 10° ESE visible
23 Jun - 05:31:33 10° SW 05:39:14 54° SSE 05:53:27 10° ENE daylight
23 Jun - 07:50:45 10° W 08:01:50 89° S 08:22:22 10° E daylight
23 Jun - 10:11:54 10° W 10:27:33 83° SSW 10:51:19 10° ESE daylight
23 Jun - 12:34:55 10° WNW 12:54:01 54° SSW 13:16:00 10° SE daylight
23 Jun - 15:03:33 10° W 15:18:38 22° SW 15:33:05 10° S daylight
24 Jun - 03:36:11 10° S 03:40:35 18° SE 03:46:32 10° E visible
24 Jun - 05:52:04 10° SW 06:00:03 66° SSE 06:15:17 10° ENE daylight
24 Jun - 08:11:45 10° W 08:23:17 89° N 08:44:23 10° E daylight
24 Jun - 10:33:03 10° WNW 10:49:07 77° SSW 11:12:50 10° ESE daylight
24 Jun - 12:56:33 10° W 13:15:13 46° SW 13:36:12 10° SSE daylight
24 Jun - 15:28:46 10° WSW 15:39:27 15° SW 15:49:47 10° SSW daylight
25 Jun - 03:55:27 10° SSW 04:00:51 27° SE 04:09:08 10° E visible
25 Jun - 06:12:46 10° WSW 06:21:03 76° SSE 06:37:07 10° E daylight
25 Jun - 08:32:47 10° W 08:44:47 90° N 09:06:22 10° E daylight
25 Jun - 10:54:14 10° WNW 11:10:37 70° SSW 11:34:05 10° SE daylight
25 Jun - 13:18:29 10° W 13:36:20 37° SW 13:55:57 10° SSE daylight
26 Jun - 04:15:21 10° SSW 04:21:16 37° SE 04:31:10 10° E visible
26 Jun - 06:33:34 10° WSW 06:42:12 84° SSE 06:59:00 10° E daylight
26 Jun - 08:53:48 10° W 09:06:18 87° S 09:28:17 10° ESE daylight
26 Jun - 11:15:28 10° WNW 11:32:02 61° SSW 11:55:02 10° SE daylight
26 Jun - 13:40:56 10° W 13:57:23 29° SW 14:15:07 10° S daylight
